カタログに戻る

STARLINK-31979

運用中通信VLEO
NORAD 59964·PAYLOAD·🇺🇸 United States

打ち上げ Jun 5, 2024 から Cape Canaveral Space Force Station

Loading…

次のパス (今後24時間)

TLE

最新Source: CelesTrak SupGP

元期: Sep 14, 2026, 15:09 UTC

1 59964C 24107V   26257.63173611 -.00022305  00000+0 -65919-3 0  2570
2 59964  53.1582 264.8938 0001236  85.0727  32.8216 15.34393538    17

AllMySatでSTARLINK-31979をリアルタイム追跡

Download on the App Store